Location: Newark
(0.5300°S, 127.4800°E)
Time: 13:38:40
(UTC+00:00)

Vanguard 3 - Pass Details

Date: 27 September 2019
Orbit: 508 x 3262 km, 33.3° (Epoch: 18 October)

Event Time Altitude Azimuth Distance (km) Brightness Sun altitude
Rises 05:20:58 0° 308° (NW) 7,222 12.3 60.1°
Reaches altitude 10° 05:25:57 10° 309° (NW) 6,164 12.1 58.8°
Maximum altitude 05:45:17 81° 36° (NE) 2,594 10.6 54.0°
Drops below altitude 10° 05:57:24 10° 122° (ESE) 4,117 10.5 51.0°
Sets 06:00:02 0° 123° (ESE) 4,809 10.8 50.3°
